Hanford, WA
on Wednesday, January 23, 2013

Wednesday
Previous Day Next Day
Daily Summary
 ActualAverage (KMWH)Record (KMWH)
Temperature
Mean Temperature °F 31°F  
Max Temperature 27°F 37°F 51°F (2011)
Min Temperature 18°F 25°F -4°F (2008)
Degree Days
Heating Degree Days 42 34  
Month to date heating degree days 820  
Since 1 July heating degree days 3407  
Cooling Degree Days 0 0  
Month to date cooling degree days 0  
Year to date cooling degree days 0  
Moisture
Dew Point 20°F   
Average Humidity 83    
Maximum Humidity 94    
Minimum Humidity 74    
Precipitation
Precipitation 0.00 in 0.02 in 0.59 in (2003)
Month to date precipitation 0.95  
Year to date precipitation 0.95  
Wind
Wind Speed 3 mph   
Max Wind Speed 5 mph   
Max Gust Speed mph   
Visibility 12 miles   
Events     

Key: T is trace of precipitation, MM is missing value
Source: NWS Daily Summary
Time(PST)TemperatureDew PointHumidity Pressure Visibility Wind DirectionWind SpeedGust SpeedPrecipitationEvents Conditions
12:50 AM 23.7°F 20.8°F 89% 30.25 in 12.0 miles WSW 2.3 mph - N/A   Overcast
1:50 AM 23.9°F 20.5°F 87% 30.24 in 12.0 miles West 3.5 mph - N/A   Overcast
2:50 AM 23.7°F 20.7°F 88% 30.23 in 12.0 miles WNW 4.6 mph - N/A   Overcast
3:50 AM 23.0°F 20.1°F 89% 30.20 in 12.0 miles WNW 4.6 mph - N/A   Overcast
4:50 AM 22.3°F 19.8°F 90% 30.18 in 12.0 miles West 4.6 mph - N/A   Overcast
5:50 AM 19.9°F 18.0°F 92% 30.18 in 10.0 miles WNW 4.6 mph - N/A   Overcast
6:50 AM 21.4°F 18.5°F 89% 30.16 in 10.0 miles NW 4.6 mph - N/A   Overcast
7:50 AM 18.9°F 16.9°F 92% 30.15 in 12.0 miles NNE 2.3 mph - N/A   Overcast
8:50 AM 24.3°F 20.1°F 84% 30.14 in 12.0 miles ENE 2.3 mph - N/A   Overcast
9:50 AM 24.8°F 19.4°F 80% 30.14 in 12.0 miles WSW 4.6 mph - N/A   Overcast
10:50 AM 25.9°F 19.2°F 76% 30.14 in 12.0 miles NW 3.5 mph - N/A   Overcast
11:50 AM 25.9°F 19.0°F 75% 30.12 in 12.0 miles West 2.3 mph - N/A   Overcast
12:50 PM 26.2°F 19.6°F 76% 30.10 in 12.0 miles West 4.6 mph - 0.00 in   Overcast
1:50 PM 26.6°F 19.9°F 76% 30.06 in 12.0 miles North 4.6 mph - N/A   Overcast
2:50 PM 27.0°F 19.9°F 75% 30.05 in 12.0 miles SSW 2.3 mph - N/A   Overcast
3:50 PM 27.3°F 20.1°F 74% 30.04 in 12.0 miles North 1.2 mph - N/A   Overcast
4:50 PM 27.3°F 20.3°F 75% 30.04 in 12.0 miles NNW 2.3 mph - N/A   Overcast
5:50 PM 27.3°F 20.5°F 75% 30.04 in 12.0 miles SSE 4.6 mph - N/A   Overcast
6:50 PM 26.8°F 20.7°F 78% 30.05 in 12.0 miles SSE 4.6 mph - N/A   Overcast
10:50 PM 21.7°F 19.6°F 91% 30.12 in 12.0 miles NNE 3.5 mph - N/A   Mostly Cloudy
11:50 PM 20.3°F 18.9°F 94% 30.14 in 12.0 miles WNW 4.6 mph - N/A   Clear
Moon Phase
Jan. 23 Jan. 26 Feb. 03 Feb. 10 Feb. 17
Sunrise:07:31 AM (PST) Moon Rise:02:01 PM (PST)1/23
Sunset:04:49 PM (PST) Moon Set:04:50 AM (PST)1/23

Copyright © 2014 The Weather Underground, Inc.